(505643) = 2013 AS100 = 2014 OQ98

Discovered at Catalina on 2013-01-09 by CSS.

Orbit

Orbit type: Hungaria

Note: WebGL enabled browser required.

epoch2024-03-31.0
epoch JD2460400.5
perihelion date2021-11-30.38593
perihelion JD2459548.88593
argument of perihelion (°)237.96127
ascending node (°)317.88006
inclination (°)20.87180
eccentricity0.0514437
perihelion distance (AU)1.8731911
Tisserand w.r.t. Jupiter3.8
ΔV w.r.t. Earth (km/sec)10.9
semimajor axis (AU)1.9747811
mean anomaly (°)302.46019
mean daily motion (°/day)0.35516110
aphelion distance (AU)2.076
period (years)2.78
P-vector [x]-0.92471423
P-vector [y]-0.09245988
P-vector [z]-0.36926247
Q-vector [x]0.29632136
Q-vector [y]-0.78376627
Q-vector [z]-0.54580591
absolute magnitude17.84
phase slope0.15
uncertainty0
referenceMPEC 2024-D35
observations used159
oppositions7
arc length (days)8010
first opposition used2002
last opposition used2024
residual rms (arc-secs)0.71
perturbers coarse indicatorM-v
perturbers precise indicator003Ek
first observation date used2002-03-12.0
last observation date used2024-02-15.0
computer namePan
JD of orbit computation2458056.076919
perihelion JD uncertainty (days)1.2094E-04
argument of perihelion uncertainty (°)4.4002E-05
ascending node uncertainty (°)9.8750E-06
inclination uncertainty (°)6.5947E-06
eccentricity uncertainty 5.8863E-08
perihelion distance uncertainty (AU)1.1889E-07
Minimum Orbit Intersection Distances (in AU)
for orbit epoch: 2460400.5, reference: E2024-D35
Mercury1.46792
Venus1.19218
Earth0.91803
Mars0.26622
Jupiter2.9768
Saturn7.13818
Uranus16.5669
Neptune27.8871

Observations

160 total observations over interval: 2002 03 12.158650 – 2024 02 15.273265
These data are available for download (format description).

Date (UT) J2000 RA J2000 Dec Magn Location Ref
2002 03 12.158650 08 57 08.482 +06 04 56.01 20.32 V 645 – Apache Point-Sloan Digital Sky Survey MPS 839155
2002 03 12.162122 08 57 08.290 +06 04 54.42 21.12   645 – Apache Point-Sloan Digital Sky Survey MPS 839155
2013 01 09.28242 08 57 45.57 +32 01 39.0 19.8 V 703 – Catalina Sky Survey MPS 451119
2013 01 09.28758 08 57 45.03 +32 01 36.4 20.7 V 703 – Catalina Sky Survey MPS 451119
2013 01 09.29275 08 57 44.56 +32 01 34.6 19.7 V 703 – Catalina Sky Survey MPS 451119
2013 01 09.29793 08 57 44.13 +32 01 32.6 20.1 V 703 – Catalina Sky Survey MPS 451119
2013 01 09.30681 08 57 43.16 +32 01 29.7 19.7 V 703 – Catalina Sky Survey MPS 451119
2013 01 09.31471 08 57 42.48 +32 01 28.3 20.1 V 703 – Catalina Sky Survey MPS 451119
2013 01 09.32274 08 57 41.76 +32 01 25.5 20.2 V 703 – Catalina Sky Survey MPS 451119
2013 01 09.33090 08 57 40.86 +32 01 23.0 20.0 V 703 – Catalina Sky Survey MPS 451119
2013 01 10.36836 08 56 03.94 +31 55 45.2 20.0 V G96 – Mt. Lemmon Survey MPS 451119
2013 01 10.37734 08 56 03.08 +31 55 42.6 19.7 V G96 – Mt. Lemmon Survey MPS 451119
2013 01 10.38639 08 56 02.18 +31 55 39.2 20.0 V G96 – Mt. Lemmon Survey MPS 451119
2013 01 10.39546 08 56 01.32 +31 55 36.2 20.1 V G96 – Mt. Lemmon Survey MPS 451119
2013 01 31.33701 08 19 01.38 +28 57 14.4 20.1 V 703 – Catalina Sky Survey MPS 531642
2013 01 31.34716 08 19 00.26 +28 57 05.7 19.4 V 703 – Catalina Sky Survey MPS 531642
2013 01 31.35227 08 18 59.68 +28 57 04.7 21.0 V 703 – Catalina Sky Survey MPS 531642
2013 01 31.35735 08 18 59.22 +28 57 00.2 19.8 V 703 – Catalina Sky Survey MPS 531642
2013 02 06.25461 08 09 07.02 +27 45 43.0 20.1 V 703 – Catalina Sky Survey MPS 531642
2013 02 06.25963 08 09 06.48 +27 45 39.7 20.5 V 703 – Catalina Sky Survey MPS 531642
2013 02 06.26476 08 09 06.01 +27 45 34.0 20.3 V 703 – Catalina Sky Survey MPS 531642
2013 02 06.26981 08 09 05.43 +27 45 30.8 19.8 V 703 – Catalina Sky Survey MPS 531642
2013 03 16.10947 07 42 31.28 +19 20 20.3 20.5 V G96 – Mt. Lemmon Survey MPS 531642
2013 03 16.11478 07 42 31.35 +19 20 16.7 20.6 V G96 – Mt. Lemmon Survey MPS 531642
2013 03 16.12025 07 42 31.39 +19 20 12.6 20.3 V G96 – Mt. Lemmon Survey MPS 531642
2013 03 16.12573 07 42 31.42 +19 20 08.4 21.1 V G96 – Mt. Lemmon Survey MPS 531642
2014 07 07.58173 23 09 40.659 -03 36 11.02 21.2 w F51 – Pan-STARRS 1, Haleakala MPS 528306
2014 07 07.58325 23 09 40.650 -03 36 09.94 21.2 w F51 – Pan-STARRS 1, Haleakala MPS 528306
2014 07 07.59054 23 09 40.620 -03 36 04.44 21.1 w F51 – Pan-STARRS 1, Haleakala MPS 528306
2014 07 07.59205 23 09 40.614 -03 36 03.34 21.2 w F51 – Pan-STARRS 1, Haleakala MPS 528306
2014 07 07.59933 23 09 40.593 -03 35 57.93 21.1 w F51 – Pan-STARRS 1, Haleakala MPS 528306
2014 07 07.60084 23 09 40.594 -03 35 56.95 21.1 w F51 – Pan-STARRS 1, Haleakala MPS 528306
2014 07 07.60817 23 09 40.555 -03 35 51.38 21.1 w F51 – Pan-STARRS 1, Haleakala MPS 528306
2014 07 07.60966 23 09 40.556 -03 35 50.26 21.2 w F51 – Pan-STARRS 1, Haleakala MPS 528306
2014 07 26.58101 23 02 40.698 +00 07 49.94 20.7 w F51 – Pan-STARRS 1, Haleakala MPS 524127
2014 07 26.59041 23 02 40.255 +00 07 56.02 20.8 w F51 – Pan-STARRS 1, Haleakala MPS 524127
2014 07 26.59977 23 02 39.817 +00 08 02.05 20.7 w F51 – Pan-STARRS 1, Haleakala MPS 524127
2014 07 26.60915 23 02 39.381 +00 08 08.36 20.7 w F51 – Pan-STARRS 1, Haleakala MPS 524127
2014 07 28.54188 23 01 10.261 +00 29 03.69 20.6 w F51 – Pan-STARRS 1, Haleakala MPS 524127
2014 07 28.55329 23 01 09.674 +00 29 10.98 20.7 w F51 – Pan-STARRS 1, Haleakala MPS 524127
2014 07 28.56467 23 01 09.082 +00 29 18.33 20.6 w F51 – Pan-STARRS 1, Haleakala MPS 524127
2014 07 28.57604 23 01 08.506 +00 29 25.54 20.6 w F51 – Pan-STARRS 1, Haleakala MPS 524127
2014 08 28.25396 22 22 17.77 +04 39 14.5 19.2 R H15 – ISON-NM Observatory, Mayhill MPS 528306
2014 08 28.26346 22 22 16.91 +04 39 17.1 18.6 R H15 – ISON-NM Observatory, Mayhill MPS 528306
2014 08 28.27463 22 22 15.78 +04 39 21.4 19.0 R H15 – ISON-NM Observatory, Mayhill MPS 528306
2014 08 28.28402 22 22 14.94 +04 39 23.7 19.3 R H15 – ISON-NM Observatory, Mayhill MPS 528306
2014 09 04.37955 22 11 36.233 +05 09 30.25 20.1 i F51 – Pan-STARRS 1, Haleakala MPS 529953
2014 09 04.39115 22 11 35.178 +05 09 32.69 19.9 i F51 – Pan-STARRS 1, Haleakala MPS 529953
2014 09 04.40278 22 11 34.123 +05 09 35.17 20.0 i F51 – Pan-STARRS 1, Haleakala MPS 529953
2014 09 04.41446 22 11 33.067 +05 09 37.58 19.9 i F51 – Pan-STARRS 1, Haleakala MPS 529953
2014 09 15.39136 21 56 46.886 +05 36 59.35 20.2 i F51 – Pan-STARRS 1, Haleakala MPS 531642
2014 09 15.40361 21 56 45.976 +05 37 00.61 20.3 i F51 – Pan-STARRS 1, Haleakala MPS 531642
2014 09 15.41587 21 56 45.058 +05 37 01.79 20.2 i F51 – Pan-STARRS 1, Haleakala MPS 531642
2014 09 15.42818 21 56 44.131 +05 37 02.99 20.2 i F51 – Pan-STARRS 1, Haleakala MPS 531642
2016 01 18.51234 11 35 30.482 -05 16 45.63 20.7 w F51 – Pan-STARRS 1, Haleakala MPS 671904
2016 01 18.52440 11 35 30.409 -05 16 58.14 20.7 w F51 – Pan-STARRS 1, Haleakala MPS 671904
2016 01 18.53641 11 35 30.323 -05 17 10.57 20.6 w F51 – Pan-STARRS 1, Haleakala MPS 671904
2016 01 18.54842 11 35 30.238 -05 17 23.11 20.6 w F51 – Pan-STARRS 1, Haleakala MPS 671904
2016 01 19.58678 11 35 24.160 -05 35 17.23 20.7 w F51 – Pan-STARRS 1, Haleakala MPS 671904
2016 01 19.59811 11 35 24.042 -05 35 28.80 20.7 w F51 – Pan-STARRS 1, Haleakala MPS 671904
2016 01 19.60947 11 35 23.937 -05 35 40.53 20.7 w F51 – Pan-STARRS 1, Haleakala MPS 671904
2016 01 19.62082 11 35 23.821 -05 35 52.35 20.9 w F51 – Pan-STARRS 1, Haleakala MPS 671904
2016 02 13.30498 11 19 28.59 -12 16 51.0 20.2 r G45 – Space Surveillance Telescope, Atom Site MPS 682635
2016 02 13.31420 11 19 27.89 -12 16 59.0 20.4 r G45 – Space Surveillance Telescope, Atom Site MPS 682635
2016 02 13.31879 11 19 27.55 -12 17 03.6 20.4 r G45 – Space Surveillance Telescope, Atom Site MPS 682635
2016 02 13.32357 11 19 27.14 -12 17 08.2 19.7 r G45 – Space Surveillance Telescope, Atom Site MPS 682635
2016 03 01.32728 10 54 56.15 -15 38 58.0 20.3 r G45 – Space Surveillance Telescope, Atom Site MPS 686777
2016 03 01.33183 10 54 55.64 -15 38 59.7 20.3 r G45 – Space Surveillance Telescope, Atom Site MPS 686777
2016 03 01.34705 10 54 54.14 -15 39 08.8 19.8 r G45 – Space Surveillance Telescope, Atom Site MPS 686777
2016 03 01.34921 10 54 53.87 -15 39 09.6 19.9 r G45 – Space Surveillance Telescope, Atom Site MPS 686777
2016 03 01.35938 10 54 52.86 -15 39 15.0 19.9 r G45 – Space Surveillance Telescope, Atom Site MPS 686777
2016 03 01.36464 10 54 52.32 -15 39 17.5 19.7 r G45 – Space Surveillance Telescope, Atom Site MPS 686777
2016 03 01.36939 10 54 51.87 -15 39 20.3 20.2 r G45 – Space Surveillance Telescope, Atom Site MPS 686777
2016 03 02.41784 10 53 09.592 -15 48 26.21 19.8 w F51 – Pan-STARRS 1, Haleakala MPS 686777
2016 03 02.42995 10 53 08.355 -15 48 32.40 19.8 w F51 – Pan-STARRS 1, Haleakala MPS 686777
2016 03 02.44210 10 53 07.117 -15 48 38.63 19.8 w F51 – Pan-STARRS 1, Haleakala MPS 686777
2016 03 02.45420 10 53 05.886 -15 48 44.78 19.7 w F51 – Pan-STARRS 1, Haleakala MPS 686777
2016 03 10.20133 10 40 25.26 -16 42 35.8 20.2 r G45 – Space Surveillance Telescope, Atom Site MPS 692735
2016 03 10.20558 10 40 24.84 -16 42 36.8 20.3 r G45 – Space Surveillance Telescope, Atom Site MPS 692735
2016 03 10.21147 10 40 24.26 -16 42 39.2 20.1 r G45 – Space Surveillance Telescope, Atom Site MPS 692735
2016 03 10.21745 10 40 23.67 -16 42 40.8 20.2 r G45 – Space Surveillance Telescope, Atom Site MPS 692735
2016 03 10.22357 10 40 23.04 -16 42 42.8 20.1 r G45 – Space Surveillance Telescope, Atom Site MPS 692735
2016 03 12.39276 10 36 54.976 -16 53 31.75 19.7 w F51 – Pan-STARRS 1, Haleakala MPS 692735
2016 03 12.40441 10 36 53.827 -16 53 35.00 19.7 w F51 – Pan-STARRS 1, Haleakala MPS 692735
2016 03 12.41608 10 36 52.676 -16 53 38.15 19.7 w F51 – Pan-STARRS 1, Haleakala MPS 692735
2016 03 12.42772 10 36 51.528 -16 53 41.33 19.7 w F51 – Pan-STARRS 1, Haleakala MPS 692735
2016 03 15.27074 10 32 27.06 -17 05 15.5 20.0 V 703 – Catalina Sky Survey MPS 692735
2016 03 15.27878 10 32 26.41 -17 05 17.1 20.0 V 703 – Catalina Sky Survey MPS 692735
2016 03 15.28280 10 32 25.97 -17 05 17.7 20.6 V 703 – Catalina Sky Survey MPS 692735
